Theta_e
356 354 353 352 350 350 353 353 352 350 350 350 346 346 343 342 336 331 331 332 338 344 352 347 345 354 353 353 356 358 358 360 361 357 356 355 354 353 351 352 352 353 354 356 362 363 363 361 359 358 357 355 354 353 355 355 353 350 350 350 349 346 344 342 344 345 345 345 345 346 347 348 348 348
355 356 355 353 350 352 352 350 351 352 350 349 350 347 348 345 340 336 333 335 340 343 349 349 345 351 354 356 357 358 358 360 360 357 353 352 354 350 350 351 350 350 350 352 357 360 361 360 360 358 355 351 352 350 352 352 348 348 348 348 346 344 341 341 342 343 344 344 344 345 346 346 347 346
356 354 353 352 351 351 351 353 353 352 352 350 349 347 350 348 346 343 341 335 340 349 345 349 352 352 353 356 356 356 354 355 353 350 349 349 351 350 351 350 349 348 347 349 352 354 357 359 359 356 351 352 350 349 348 346 346 347 346 345 343 340 339 338 339 340 342 343 343 344 344 344 345 344
358 354 352 352 352 353 353 353 353 352 352 352 349 349 348 347 349 349 343 340 341 348 351 351 353 356 355 356 354 352 351 354 355 351 349 351 352 353 353 352 350 348 347 347 348 348 351 355 355 354 352 351 350 349 346 344 344 344 343 340 338 336 336 337 338 338 339 340 341 341 342 342 342 342
357 355 354 354 356 356 355 354 353 350 349 349 349 350 348 346 347 345 343 340 341 346 352 353 354 356 356 353 354 352 352 352 352 353 351 351 349 348 351 352 350 347 346 345 345 345 347 349 350 351 351 350 348 347 344 341 339 338 338 335 332 331 333 334 334 335 337 338 339 339 340 340 340 340
359 355 352 352 352 354 353 351 352 351 351 349 349 347 350 346 345 346 344 343 341 342 345 347 351 351 357 351 354 352 352 352 355 351 351 353 351 348 354 351 352 347 345 343 343 343 344 345 345 347 350 348 346 344 340 336 333 334 333 330 328 329 330 333 333 333 334 335 337 338 338 338 338 338
354 351 350 351 352 353 349 350 351 351 349 351 350 351 350 346 346 348 348 344 342 342 342 344 346 348 351 350 349 352 353 354 353 350 351 352 354 359 356 354 355 347 343 343 342 342 342 342 343 344 346 347 344 341 336 330 328 329 327 326 328 328 328 328 329 330 330 332 333 335 336 337 336 337
352 349 348 349 353 351 347 347 347 347 348 347 348 349 349 349 349 349 348 347 344 341 339 341 344 347 346 346 351 353 353 351 352 352 353 355 355 354 354 353 355 350 343 344 342 342 341 340 340 340 341 341 337 333 329 326 324 324 325 326 327 326 326 325 326 327 326 327 328 329 332 334 334 334
353 350 348 348 350 348 345 346 346 346 346 348 349 349 349 350 349 349 347 346 344 341 339 340 342 345 346 349 350 351 348 350 351 351 350 353 354 355 354 358 360 342 340 342 342 340 341 340 338 337 337 336 332 329 327 326 325 323 322 323 324 325 325 324 323 324 323 323 324 324 328 330 331 332
353 350 348 348 349 347 345 345 346 346 347 348 350 352 350 350 349 346 346 347 345 343 341 340 341 342 346 346 346 348 349 348 349 349 349 350 352 353 352 353 362 361 354 349 347 340 338 338 335 336 335 332 329 328 327 326 324 322 321 320 321 323 323 323 323 322 321 321 321 322 324 328 330 331
353 350 349 348 349 348 347 346 346 346 347 352 351 352 352 351 349 347 346 346 346 345 344 344 344 345 346 346 345 346 349 351 351 347 346 346 348 350 347 349 354 357 356 351 347 347 344 342 339 332 331 330 328 327 327 326 325 324 321 318 320 321 320 321 321 321 320 320 319 318 319 323 328 329
353 351 350 349 349 348 347 346 346 347 345 346 348 349 347 348 347 346 347 347 345 343 344 343 343 341 342 343 345 349 347 344 342 347 348 345 346 348 345 348 349 350 353 351 352 351 346 342 339 333 331 331 329 328 328 328 328 327 323 320 321 322 320 320 320 320 320 319 318 317 316 317 321 326
352 350 350 351 351 353 357 357 355 354 355 351 349 350 347 346 344 344 345 346 345 344 343 344 345 344 344 344 344 344 342 343 343 344 346 347 348 348 347 348 350 351 350 350 351 352 351 343 340 336 332 330 330 330 329 328 331 329 324 321 323 322 321 320 320 320 320 319 319 318 317 316 318 320
351 351 350 353 359 359 360 361 360 360 360 361 358 354 349 348 347 346 346 345 345 343 343 344 345 344 345 345 345 344 345 347 346 346 345 344 345 344 344 346 346 350 350 347 345 347 353 347 342 336 334 333 336 330 329 327 330 330 325 323 323 322 322 320 320 319 319 318 319 318 317 317 317 317
351 350 350 348 356 358 360 356 358 356 356 357 358 358 358 357 353 348 348 348 346 342 343 345 346 346 346 348 348 347 347 347 345 344 344 344 344 343 342 341 347 353 349 346 342 343 349 350 344 342 338 336 333 331 328 330 330 327 325 323 323 322 322 321 320 319 318 318 318 318 317 317 317 316
351 349 350 350 351 349 352 350 343 347 351 350 351 354 356 356 355 351 348 346 345 346 346 343 344 345 344 347 348 347 345 344 344 344 343 342 343 344 343 343 342 345 352 344 342 342 346 352 350 346 345 341 335 333 328 328 328 326 324 324 323 323 322 322 322 321 320 319 319 319 319 320 319 317
344 344 342 347 349 345 345 340 333 333 334 340 347 351 353 354 352 343 342 346 348 348 345 344 343 345 346 343 345 349 348 349 343 344 343 344 345 345 343 344 345 347 349 345 343 342 344 348 350 348 349 347 341 336 330 328 328 325 324 323 323 323 322 322 322 321 320 318 317 316 317 319 319 317
345 345 345 345 337 332 331 331 330 329 328 332 337 341 343 345 349 343 341 342 344 344 345 344 341 344 347 344 346 349 349 345 344 343 342 344 343 343 343 346 347 349 352 345 343 340 342 346 346 345 348 342 346 339 330 326 326 325 323 323 322 322 322 322 321 321 320 318 317 315 314 315 317 317
343 344 341 335 330 327 328 331 331 329 331 332 336 336 335 337 340 335 334 333 337 340 339 339 340 341 343 344 345 346 348 347 347 346 344 345 345 347 348 347 349 349 348 345 341 334 340 345 341 342 335 330 329 328 325 324 324 324 323 322 322 322 321 321 321 320 319 319 317 315 314 313 315 316
338 330 328 328 329 328 327 329 328 332 334 329 329 330 331 335 335 332 337 331 335 339 335 337 339 338 336 334 337 338 338 342 344 346 348 347 345 342 340 339 342 343 336 332 333 332 336 337 333 336 335 331 328 327 327 324 324 323 322 322 321 321 320 320 320 320 319 319 318 316 314 312 311 313
333 332 331 330 330 328 327 326 321 326 332 326 328 329 331 332 331 329 330 331 334 332 329 328 329 329 329 329 328 327 330 338 342 343 341 338 340 338 336 337 338 335 329 330 329 328 331 333 330 331 339 334 331 328 327 327 323 321 321 320 320 320 320 319 319 318 319 318 318 317 315 312 312 314
339 340 340 336 329 328 327 321 321 325 330 326 329 331 330 329 328 327 328 331 337 336 334 332 331 331 331 331 332 332 331 332 337 333 330 332 336 336 335 333 337 330 327 328 330 331 326 330 329 328 337 335 332 328 329 330 325 322 321 320 319 319 318 318 318 318 318 318 318 317 314 312 313 317
337 337 338 336 331 327 323 316 317 321 330 326 328 330 328 327 327 326 326 331 336 335 333 333 334 333 333 332 330 332 334 335 335 330 329 330 332 332 330 328 330 331 323 326 329 328 323 327 326 327 330 327 331 334 333 333 328 327 325 325 325 320 320 319 318 317 317 317 317 316 314 312 316 319
327 331 334 331 322 319 316 313 312 315 321 327 328 329 327 326 326 326 327 338 336 334 333 330 330 331 332 331 330 328 329 331 332 329 329 327 329 328 324 324 321 317 318 323 330 327 325 326 322 326 325 324 319 326 329 331 332 330 328 326 326 323 323 321 319 317 315 316 315 314 313 311 317 322
324 326 328 331 327 316 314 311 310 311 317 329 329 326 325 326 326 326 331 335 336 331 330 329 329 329 329 330 331 330 329 329 329 329 328 328 326 326 324 321 320 319 320 324 331 324 320 324 323 323 322 324 322 323 326 328 329 331 331 329 328 331 329 327 323 325 317 314 312 311 311 313 313 321
325 325 327 330 327 314 313 310 309 311 318 325 330 324 318 321 327 337 337 333 332 331 329 328 328 328 328 328 328 330 330 329 331 326 326 327 328 328 325 322 319 318 319 324 330 326 325 320 322 323 322 323 322 323 322 325 327 326 327 326 327 327 334 331 331 328 327 327 325 319 314 314 315 316
325 327 327 330 326 314 312 312 315 317 320 326 321 317 319 321 326 335 334 333 329 328 328 328 327 328 326 325 323 325 326 327 330 329 328 328 327 329 331 329 325 322 324 324 330 326 322 320 324 320 318 319 320 321 319 318 322 327 323 323 327 325 328 327 325 325 325 325 324 317 313 312 313 315
326 325 326 325 313 311 309 311 314 316 322 321 313 317 321 325 330 329 329 327 328 328 325 325 324 324 324 322 322 323 324 326 326 327 328 327 327 326 326 327 331 329 325 324 326 327 324 321 321 325 324 320 319 319 318 324 326 325 321 324 327 324 324 326 325 327 325 324 322 323 321 320 320 317
326 320 314 312 313 314 314 316 319 320 321 317 318 319 323 332 325 325 325 325 324 323 322 322 322 322 324 323 323 322 322 325 326 326 324 325 326 327 331 329 330 327 326 327 326 329 326 323 320 322 322 321 317 319 320 318 320 319 322 324 321 323 323 322 321 320 323 320 319 321 320 321 321 320
320 316 315 317 318 321 324 328 328 327 326 324 325 325 328 323 324 323 323 323 322 321 322 322 321 322 322 321 323 325 324 321 321 324 323 321 322 322 323 321 320 322 325 327 326 326 324 322 322 321 319 319 321 319 320 319 318 318 322 322 322 326 323 321 318 318 319 318 319 321 321 322 325 320
328 327 327 322 320 321 326 328 329 327 327 325 322 320 320 321 322 324 323 322 321 322 321 321 320 321 322 323 323 321 320 319 319 322 324 320 319 321 321 320 318 319 320 320 318 318 318 318 319 321 318 318 319 318 318 320 318 317 318 320 318 312 316 319 317 315 316 317 318 317 317 315 317 320
329 326 329 325 327 325 323 322 321 321 322 323 321 318 318 318 320 322 324 323 319 319 319 319 318 318 317 316 317 318 317 317 317 318 320 321 318 319 318 316 315 315 314 314 314 316 319 316 317 318 319 318 316 316 318 318 317 318 316 318 318 316 319 315 314 315 317 317 315 312 312 312 312 313
322 322 321 320 319 319 319 319 318 319 318 317 316 315 314 314 314 315 314 314 314 315 314 314 313 312 312 312 313 314 313 314 314 314 314 315 314 314 314 313 310 309 308 308 310 311 312 313 318 319 319 320 320 320 317 316 318 318 314 313 314 314 314 315 315 315 316 315 314 312 311 312 312 312
317 317 316 316 316 316 315 315 315 315 315 315 313 312 314 313 312 313 313 312 313 315 313 312 311 310 310 308 309 310 311 310 310 312 312 310 310 309 309 308 307 308 308 306 307 308 310 312 314 315 315 317 319 315 317 316 312 313 313 310 309 309 313 316 315 316 315 314 313 311 309 309 311 312
314 314 314 314 315 315 314 314 313 313 313 314 313 311 310 310 312 312 311 310 313 313 311 311 311 309 308 307 308 308 309 309 307 308 309 308 307 306 307 306 306 306 305 305 306 307 309 310 308 308 307 308 308 309 316 311 307 306 306 305 307 307 308 312 315 313 311 309 310 309 308 308 307 309
311 311 311 311 312 313 313 313 314 312 310 311 311 310 310 309 311 309 309 308 310 310 308 308 308 307 307 306 308 307 308 308 305 306 305 304 304 305 305 306 307 306 305 304 305 306 309 308 307 305 303 303 303 302 304 313 312 307 304 303 304 305 307 309 311 310 309 308 309 306 305 305 305 307
310 310 310 309 310 310 310 310 310 311 310 309 309 310 310 309 308 309 308 308 310 309 307 306 305 304 304 305 305 306 306 305 302 304 303 302 303 303 302 305 306 305 303 303 305 306 308 306 306 304 302 300 299 299 301 305 308 310 307 305 305 306 306 308 308 306 307 308 305 305 305 306 304 305
309 310 309 310 309 309 311 310 311 310 311 311 309 309 309 308 308 308 307 305 305 305 304 303 304 303 302 303 301 301 302 302 302 301 303 301 301 300 301 301 301 302 302 303 304 304 304 304 303 304 302 299 298 298 299 302 304 306 309 307 306 307 309 307 305 305 305 307 305 306 306 306 305 305
309 310 309 309 309 307 308 309 309 308 306 306 307 307 309 307 305 305 305 304 303 302 301 301 301 302 301 300 302 301 300 299 299 300 301 300 301 300 301 302 302 302 301 301 301 301 302 300 302 303 300 299 298 299 300 300 301 305 308 308 306 306 307 305 305 305 306 304 304 305 305 307 310 311
312 311 309 309 307 307 307 308 307 307 306 306 305 305 307 306 304 303 303 303 301 301 300 301 301 299 298 299 299 298 299 299 299 298 300 299 301 302 301 302 302 301 299 300 301 301 300 301 302 302 303 303 304 305 304 305 305 306 308 309 308 309 309 308 307 307 307 304 304 302 302 303 302 303
311 308 308 308 307 307 306 305 304 306 305 304 305 308 306 305 304 303 302 302 302 299 298 297 298 297 296 296 297 297 296 298 298 299 300 299 300 301 302 302 299 300 299 299 299 299 300 300 307 310 309 306 306 306 302 300 300 302 304 307 308 309 310 311 309 308 307 307 305 302 301 300 299 300
309 308 306 306 305 305 304 303 303 303 303 303 302 303 303 305 305 306 303 303 299 300 297 296 296 297 296 295 295 297 295 296 297 297 299 297 296 298 300 300 298 299 298 298 298 298 301 303 306 306 304 304 303 301 299 300 300 301 302 304 307 308 309 309 309 310 310 309 306 305 302 301 300 299
309 306 307 308 306 305 304 304 303 302 302 302 302 301 301 299 299 299 297 297 297 297 295 295 295 295 295 295 294 295 294 295 296 295 296 296 296 295 296 297 299 299 298 299 299 300 301 301 301 301 301 300 301 301 299 301 302 302 302 303 304 306 307 309 308 308 309 310 310 308 306 303 299 297
307 307 305 304 304 303 303 302 302 302 303 303 303 302 300 298 297 297 296 295 295 295 297 295 294 294 294 295 296 293 295 296 295 295 295 296 297 296 297 298 300 299 299 299 298 298 299 300 300 301 299 298 300 299 301 302 302 305 304 303 305 303 304 307 309 310 309 309 309 309 310 309 309 309
307 305 304 304 303 303 302 302 302 301 301 302 301 301 301 299 299 297 296 296 296 295 296 295 294 294 294 296 294 293 295 298 296 296 297 296 295 297 298 298 299 299 298 297 297 297 298 298 298 299 298 300 301 301 304 304 303 303 302 302 302 303 303 305 305 305 305 306 308 309 309 311 311 310
Wind_Speed
4 4 4 4 4 4 3 2 3 3 2 1 2 2 4 4 3 2 2 3 2 2 1 1 3 2 3 5 5 5 5 7 8 5 5 5 6 9 11 12 13 14 14 10 7 6 6 4 4 4 2 2 3 3 3 4 4 5 6 7 8 9 9 9 9 9 9 9 8 8 8 8 8 8
4 4 3 3 4 4 3 4 3 3 1 1 2 4 5 4 2 3 3 5 3 4 2 2 2 2 4 4 5 4 6 8 7 5 5 6 6 11 12 12 13 13 13 8 8 8 6 5 5 4 2 1 1 1 1 2 3 4 5 6 7 7 7 7 8 9 8 7 7 7 8 8 8 8
3 3 4 4 4 5 5 4 3 3 0 3 4 5 5 5 4 5 3 2 4 3 3 4 3 2 4 4 4 5 5 7 7 5 4 5 8 10 8 12 13 11 9 9 10 10 8 6 5 4 3 2 2 2 0 1 2 3 4 5 6 5 5 6 7 7 8 8 7 7 8 8 8 9
4 3 4 4 4 4 4 4 4 3 1 1 3 5 5 4 3 4 3 3 7 3 3 5 5 4 3 5 5 5 5 5 7 4 5 4 5 4 5 8 9 9 9 10 11 11 9 8 6 5 4 3 3 2 1 0 2 3 3 4 4 3 3 5 6 6 7 7 7 8 8 8 10 10
4 4 4 4 3 3 4 4 2 2 3 2 1 2 2 3 3 4 4 4 7 5 3 4 3 3 3 3 1 4 5 5 5 5 4 4 3 3 4 4 7 9 10 11 10 10 9 9 8 7 6 5 5 3 2 1 1 2 3 3 3 2 3 4 5 5 6 7 7 8 8 9 10 11
2 3 3 3 4 4 2 2 0 1 1 1 2 3 2 3 3 4 4 5 4 5 2 3 3 3 0 3 2 3 5 6 5 6 5 5 4 4 2 3 3 4 6 8 9 10 9 9 9 8 8 8 6 5 3 2 2 1 3 3 3 0 3 4 5 5 6 7 7 8 8 9 9 9
1 2 1 1 2 2 2 3 2 2 3 3 3 3 3 4 5 4 5 3 4 6 6 4 3 2 2 2 5 4 3 4 4 5 5 4 3 0 1 2 2 4 5 7 9 10 10 9 9 9 9 8 7 6 4 2 2 1 2 3 3 1 2 3 4 5 6 6 7 8 8 9 9 10
3 3 3 4 3 3 4 4 3 3 4 4 4 5 5 4 4 4 3 4 5 3 4 3 3 2 2 4 4 4 4 4 5 3 4 3 3 2 1 1 2 2 4 7 8 9 9 9 9 9 9 9 8 7 6 5 3 2 3 3 2 1 0 2 3 4 4 5 6 7 8 8 9 10
4 4 4 3 2 2 3 3 4 4 3 4 4 5 5 3 3 2 3 3 3 4 5 5 3 2 3 4 5 3 4 5 4 3 3 3 4 4 2 2 2 2 3 4 7 8 8 8 8 9 9 8 8 7 7 6 5 4 4 4 3 2 1 1 2 3 4 5 5 6 6 7 8 8
4 3 4 5 5 5 5 5 4 4 5 4 4 5 3 3 2 2 3 3 3 4 5 3 5 2 4 3 3 3 3 5 6 6 5 4 4 3 4 3 2 1 2 2 3 4 6 7 8 9 9 9 9 8 8 7 7 5 5 5 3 2 1 0 1 2 3 4 5 6 6 6 6 8
4 4 5 5 6 6 6 6 5 3 3 3 4 3 3 2 2 2 3 3 4 4 4 3 4 5 4 3 5 4 2 3 3 4 6 6 3 2 2 4 3 2 4 3 5 5 6 7 7 10 11 10 10 10 9 8 7 6 5 6 4 2 2 2 1 1 1 3 4 5 6 6 6 7
5 5 5 6 6 6 5 4 3 2 2 2 3 3 2 2 2 3 4 4 4 5 4 4 6 3 4 5 3 3 3 4 4 3 4 6 7 6 2 3 5 3 2 5 4 3 5 6 9 9 8 9 10 9 7 7 6 7 6 6 4 3 3 3 2 1 1 2 4 4 5 6 6 6
2 3 4 4 4 4 6 7 5 5 4 2 3 3 2 3 3 4 3 4 4 4 4 7 5 6 6 5 5 6 4 5 7 4 1 4 5 6 7 7 4 5 6 4 4 4 3 3 4 4 5 6 7 7 7 5 8 7 7 7 6 4 4 3 3 2 1 1 2 3 4 5 6 6
3 2 2 3 8 8 8 7 5 4 4 5 3 2 2 3 3 3 3 3 3 4 6 6 6 7 7 6 5 5 4 5 3 5 4 5 6 6 7 6 3 2 2 3 5 6 3 4 3 3 6 5 7 4 6 6 7 8 8 8 6 6 5 4 3 3 3 2 1 2 3 4 5 6
3 4 2 1 3 3 5 5 6 7 7 8 8 9 7 5 3 1 4 4 3 3 5 5 5 6 7 6 4 5 5 3 3 3 4 5 5 5 6 7 5 1 1 3 2 5 1 3 5 5 6 6 6 6 7 9 11 10 10 9 7 6 5 4 3 3 3 2 1 1 3 4 4 5
2 1 0 1 3 3 2 5 6 7 9 9 9 8 8 6 4 3 4 4 5 5 4 4 5 6 8 7 5 5 4 5 5 4 4 5 6 6 6 4 6 4 0 2 4 8 3 3 5 6 6 6 7 8 10 13 12 12 12 10 8 7 5 4 4 3 3 2 2 1 1 3 4 5
6 7 7 6 5 6 12 8 7 6 6 9 10 9 9 9 8 4 5 6 6 5 5 5 5 5 6 6 5 6 4 3 6 5 5 5 5 5 7 7 6 6 1 6 7 9 5 2 4 6 6 6 7 8 11 15 14 13 12 10 9 7 6 5 4 4 4 3 2 2 2 2 4 5
4 2 3 5 6 6 7 7 7 5 5 5 5 5 5 5 9 11 11 9 9 6 4 4 4 5 5 6 6 6 4 5 6 6 7 6 8 8 8 7 7 6 2 6 3 6 7 3 5 6 6 4 5 7 11 17 16 14 13 11 10 8 7 5 5 5 5 4 4 2 2 4 4 6
5 6 7 5 6 6 6 5 8 6 5 5 4 5 5 5 5 6 7 7 6 5 4 4 5 6 6 6 7 7 6 5 6 6 7 7 8 7 7 7 6 4 5 4 1 4 4 6 7 6 6 5 5 5 4 11 12 13 12 10 9 8 6 5 6 6 5 4 4 4 3 3 6 7
7 8 7 6 4 3 4 8 10 8 4 4 5 5 5 5 5 6 6 6 6 6 4 4 5 5 7 8 8 8 6 5 6 7 7 6 7 7 6 6 3 1 5 7 4 3 4 6 6 6 4 4 5 6 7 6 5 3 4 4 4 4 5 5 5 6 4 4 3 3 3 3 6 8
8 7 5 5 4 4 4 6 7 7 6 4 5 4 4 4 5 7 7 9 10 11 11 11 11 11 12 12 12 13 13 10 6 5 5 5 6 7 6 5 4 4 5 6 6 2 3 6 5 5 4 4 3 5 4 4 5 7 11 10 9 8 5 3 4 6 6 5 4 4 2 2 5 10
5 7 13 8 5 5 4 5 6 7 4 5 5 5 4 5 6 7 6 4 5 9 9 10 10 11 11 12 12 13 14 14 11 6 5 6 6 5 4 4 4 3 6 6 8 4 4 5 5 5 2 4 3 3 3 3 4 5 5 8 10 8 7 8 8 7 7 7 7 6 1 4 9 8
5 5 8 11 8 5 4 6 6 7 6 5 5 4 4 6 6 5 5 5 6 5 6 7 6 8 10 8 7 9 15 16 13 7 6 6 5 5 5 5 5 2 5 6 9 4 5 6 6 6 3 2 2 2 2 2 3 3 2 2 3 6 6 8 9 10 10 8 8 7 2 1 7 6
4 3 2 4 5 6 5 6 7 8 8 5 5 4 5 5 6 5 5 6 6 5 5 4 5 5 5 6 6 6 7 8 8 8 8 7 6 5 5 5 5 3 2 5 8 2 2 3 4 5 5 2 3 5 5 6 3 2 2 2 2 6 8 9 8 10 11 9 8 6 5 2 4 6
3 3 3 0 5 7 7 6 6 7 6 5 5 6 5 3 3 3 5 8 10 5 5 5 5 5 6 6 6 6 7 7 7 7 7 7 6 5 5 4 5 4 3 5 9 1 2 4 5 5 5 3 2 4 4 4 6 4 2 2 5 5 6 5 3 2 3 3 5 6 7 5 9 6
3 2 2 2 7 8 7 6 7 9 11 12 7 7 9 8 6 6 6 5 5 5 5 5 6 6 6 7 7 7 7 6 6 6 6 6 6 5 4 5 5 5 4 7 9 3 2 5 6 4 3 3 2 5 4 4 3 5 5 4 3 4 1 3 3 2 5 6 5 5 6 5 6 4
4 3 4 6 11 14 16 16 15 15 16 11 10 16 15 14 13 9 6 5 5 5 5 5 6 7 7 7 8 7 8 7 7 6 6 5 5 4 4 2 2 1 2 3 4 4 4 3 4 5 4 3 2 2 2 3 4 4 6 5 5 5 5 4 5 5 3 2 3 2 2 4 8 11
4 5 6 7 13 17 17 17 17 16 14 11 15 15 15 14 11 7 7 6 5 5 6 7 7 7 6 6 6 6 6 6 6 6 6 6 5 4 4 4 4 3 3 4 4 4 4 4 4 4 3 4 3 3 4 1 2 2 4 5 3 5 5 5 3 1 1 2 2 1 2 0 1 6
4 6 10 13 15 14 15 15 14 13 15 16 15 15 14 13 7 7 6 6 6 7 6 5 5 6 5 5 4 4 5 5 7 6 7 7 7 6 4 4 4 4 4 4 5 4 4 5 5 4 3 2 3 2 1 1 2 3 3 3 2 3 4 3 3 3 2 3 4 3 3 2 2 1
12 13 13 14 14 13 11 10 9 8 10 15 16 16 14 7 7 6 6 6 6 6 6 6 6 5 5 6 6 4 5 7 8 7 7 7 7 7 6 6 7 6 7 7 9 8 8 7 6 5 5 4 2 3 1 1 1 3 3 3 1 2 3 3 4 3 3 3 3 4 4 4 1 4
8 11 11 11 12 12 15 14 12 11 11 10 9 8 8 8 8 7 6 6 6 6 6 6 6 6 6 6 7 8 8 8 8 7 6 6 6 6 6 5 5 6 6 7 7 8 8 8 8 6 6 6 5 3 3 1 1 3 4 3 3 3 2 3 2 4 4 3 4 5 5 6 6 5
7 7 8 9 7 7 8 8 7 8 8 8 7 7 7 7 7 9 11 10 7 6 6 6 6 7 7 8 8 7 7 8 8 9 7 7 7 7 6 6 7 7 7 8 9 10 10 8 8 7 5 4 4 4 2 1 1 2 3 3 2 1 2 4 4 4 4 2 5 6 5 5 5 5
7 8 8 7 8 8 8 7 7 7 7 7 7 8 6 6 6 6 6 7 6 6 6 7 7 7 6 7 7 7 7 8 8 8 8 8 8 7 7 7 6 7 8 8 8 8 8 8 8 8 6 4 5 3 2 1 4 4 5 5 4 4 4 4 4 4 4 4 5 4 5 5 5 5
8 8 8 7 7 7 7 7 7 6 6 6 6 6 6 6 6 6 6 6 5 5 6 6 7 7 6 7 7 7 7 7 7 7 8 7 7 7 7 6 6 6 6 7 7 7 7 7 7 7 6 3 3 6 5 5 5 5 5 5 5 5 5 5 4 3 4 3 2 4 4 4 4 4
8 7 8 7 7 6 6 6 6 5 5 5 5 5 5 5 6 5 6 5 5 6 6 6 6 6 6 6 6 7 7 7 6 6 7 6 7 6 6 6 6 6 7 7 7 7 6 7 7 6 5 6 6 3 6 7 5 5 4 4 3 4 5 5 4 3 2 3 2 3 3 3 4 3
7 6 7 6 6 5 6 5 5 5 5 4 4 3 5 5 5 6 6 5 6 6 6 6 6 7 7 6 6 6 6 6 6 6 6 6 6 6 5 5 5 5 5 6 6 6 5 6 6 7 7 7 6 6 6 5 6 2 5 6 5 3 3 4 3 2 1 3 2 2 1 3 3 1
7 6 6 6 5 5 6 5 5 5 5 5 5 4 3 4 5 6 5 5 7 7 7 6 6 6 6 6 6 6 5 6 6 6 6 6 5 5 6 6 6 5 6 6 6 6 5 5 5 5 5 6 6 5 6 5 6 2 1 5 6 6 5 5 4 5 1 2 3 1 2 5 4 3
6 5 6 5 5 5 5 5 5 6 5 5 5 5 5 5 5 6 6 7 6 6 7 7 7 7 7 7 7 7 6 6 6 7 7 7 7 7 7 7 7 6 6 7 6 6 5 5 5 5 4 5 6 7 9 5 5 5 3 1 4 7 5 4 4 4 2 2 2 2 2 4 5 5
6 6 6 5 5 5 5 5 5 5 5 6 6 5 6 6 6 6 7 6 6 6 6 7 6 6 7 7 7 6 7 7 7 7 7 7 7 7 8 7 7 7 7 7 7 7 6 6 6 5 5 5 5 6 5 7 8 8 10 10 3 5 6 3 5 4 4 3 2 4 5 3 6 8
5 5 5 5 5 4 4 4 5 5 5 5 6 6 6 6 6 6 6 6 6 6 6 6 6 6 7 7 6 6 6 6 6 6 6 7 7 7 7 7 7 7 6 7 7 7 7 7 7 6 6 6 6 6 6 6 6 6 6 9 5 6 6 2 4 2 3 2 5 5 5 4 3 1
5 6 5 5 4 4 5 5 5 5 5 5 6 6 6 6 6 6 6 6 5 6 6 5 5 5 5 5 6 6 7 6 6 6 7 6 7 7 10 10 7 6 6 6 6 7 7 7 8 14 8 5 5 4 4 4 7 8 8 8 9 7 8 8 5 3 3 3 5 6 6 6 4 4
5 5 4 4 5 5 5 5 5 5 5 5 6 6 6 6 6 8 7 7 5 4 4 4 4 4 4 5 5 5 6 6 6 6 6 6 6 7 9 7 7 6 6 6 6 6 7 6 7 6 6 6 6 7 6 7 7 7 7 7 8 10 9 7 10 9 5 3 3 2 2 2 3 3
5 6 5 3 4 5 6 6 5 5 4 5 6 6 6 6 6 6 5 5 4 4 4 4 3 3 3 3 3 4 5 5 5 5 6 6 6 6 7 7 6 6 5 5 6 6 7 7 6 7 6 6 6 4 6 7 7 6 6 7 7 7 8 9 7 10 12 11 10 7 6 6 5 4
6 6 5 5 6 6 6 6 6 6 6 6 6 6 6 5 5 5 4 3 3 3 2 2 3 3 4 4 3 3 3 4 5 6 6 6 6 6 6 7 7 6 6 5 6 6 7 7 7 6 6 6 6 5 6 7 7 7 6 6 5 6 7 7 8 5 3 7 10 11 10 8 7 6
6 6 6 6 6 6 5 6 6 5 6 6 6 6 5 4 4 3 3 3 2 2 3 3 4 4 4 4 5 5 4 6 5 5 5 6 5 6 6 6 6 6 6 6 6 7 6 6 6 6 5 6 5 4 5 5 6 5 7 7 8 7 6 5 5 7 6 6 5 7 10 9 7 5
Wind_Direction
254 262 262 258 261 269 275 276 269 269 281 320 327 357 254 204 210 274 296 278 257 301 268 279 297 285 282 284 279 274 262 263 265 269 257 252 252 257 245 239 244 250 254 252 232 225 235 231 246 252 269 294 306 338 7 16 22 17 19 26 32 30 23 16 11 18 31 31 28 28 27 28 25 22
243 249 270 267 272 266 266 261 265 272 175 118 259 219 224 171 186 203 255 281 234 267 298 221 254 304 301 278 283 262 263 264 264 260 257 250 249 250 247 242 246 251 256 252 222 222 217 222 237 234 222 254 285 331 19 32 23 25 27 31 37 37 29 19 11 10 22 30 32 29 27 25 24 21
238 252 272 291 293 290 284 286 277 290 228 178 192 222 187 195 188 194 192 256 281 201 256 278 252 263 292 301 304 294 288 291 299 294 280 264 256 256 258 253 253 261 266 234 215 215 215 212 216 201 205 207 245 247 208 100 63 45 43 45 44 39 35 22 14 17 17 15 16 19 22 21 23 20
226 232 254 266 269 275 265 262 269 250 217 199 184 186 199 213 175 158 157 200 261 250 243 272 286 288 290 304 299 306 314 315 323 320 316 304 285 239 242 256 255 251 241 225 217 212 208 203 200 199 191 177 223 239 232 176 86 71 65 60 53 42 25 17 19 22 19 18 18 14 11 10 11 14
243 236 232 248 262 273 267 270 306 342 312 286 253 240 209 204 184 173 182 216 262 285 250 241 261 303 326 305 318 332 323 320 327 337 325 321 301 270 254 261 258 245 228 222 217 212 207 201 195 191 184 183 193 215 240 274 56 79 86 86 74 17 349 24 27 25 23 20 17 15 15 16 19 16
308 4 314 299 310 332 328 19 331 261 285 275 300 288 243 237 228 204 173 215 218 262 304 299 293 285 273 291 277 312 315 315 322 324 323 320 319 304 297 273 287 278 247 227 217 213 211 202 196 191 186 185 187 193 209 271 296 89 110 123 127 137 331 357 21 24 24 26 22 20 16 19 23 25
154 187 196 297 300 254 289 299 297 312 299 301 282 259 234 240 245 215 206 194 240 256 268 248 267 256 290 237 279 297 287 289 289 298 306 309 300 303 236 306 274 261 239 221 214 213 212 204 199 192 188 183 182 186 177 211 264 207 155 169 167 151 8 5 27 26 26 28 29 25 21 22 26 29
163 196 220 219 223 248 256 267 282 273 269 279 274 272 262 229 239 223 205 220 222 247 260 283 232 266 274 282 269 274 288 288 294 269 285 299 296 305 326 319 318 293 233 221 217 218 216 210 203 194 190 187 182 184 180 182 202 223 225 201 178 144 4 3 13 23 20 25 30 30 32 32 32 33
186 200 206 223 228 211 230 243 243 250 267 271 281 278 269 237 235 222 204 232 226 238 254 278 290 286 280 263 285 289 296 307 299 294 296 297 302 294 292 301 251 319 336 258 230 225 224 215 205 197 196 190 185 188 188 183 192 206 229 223 193 188 253 353 32 31 30 31 25 30 31 39 39 36
217 191 187 206 214 210 214 232 238 245 246 256 261 260 269 270 238 250 266 254 243 229 249 250 295 309 275 311 289 292 297 296 307 316 313 318 303 293 301 292 271 235 207 220 208 231 234 222 211 202 199 196 190 194 196 191 189 192 220 233 203 185 253 301 53 24 31 43 44 43 36 39 47 46
218 205 207 214 211 214 218 226 231 239 273 300 314 304 287 274 258 261 275 277 263 253 266 278 245 270 277 258 291 305 311 285 273 286 310 307 300 311 262 290 272 263 264 250 228 219 207 203 204 208 207 199 194 195 200 199 192 184 199 224 211 193 232 254 279 23 34 52 56 53 50 44 56 60
254 221 213 213 216 220 221 222 242 226 265 297 298 299 322 328 320 306 302 295 280 280 283 272 290 272 288 306 281 301 333 325 312 246 242 278 293 296 283 243 289 284 255 275 280 248 209 211 209 208 213 210 201 198 199 204 196 187 193 213 207 193 215 234 249 240 34 52 64 66 60 56 48 55
259 219 211 216 225 231 233 227 219 216 226 226 272 284 266 271 269 269 274 269 272 297 308 297 289 294 296 286 295 303 295 276 269 280 272 274 276 295 307 297 263 250 267 273 270 264 217 197 201 191 209 218 201 203 193 198 203 192 194 211 201 190 200 215 220 229 228 66 73 72 70 64 60 55
268 266 220 233 235 238 250 263 273 308 330 319 286 253 222 237 246 254 273 271 275 272 267 265 283 288 282 280 271 273 268 278 305 325 326 301 303 315 299 290 277 288 277 286 286 277 245 206 218 192 223 221 206 174 192 197 192 192 194 207 199 196 193 193 204 208 213 198 118 89 82 79 73 66
235 225 226 269 321 345 18 25 18 16 5 1 356 347 327 300 268 357 305 289 269 240 255 271 282 281 283 281 287 283 292 301 311 299 301 294 308 303 306 308 312 293 324 297 302 300 279 193 228 221 228 215 210 201 207 192 191 185 188 196 194 198 188 186 192 206 200 205 183 131 106 92 82 76
224 221 307 25 29 9 13 47 18 4 1 359 349 342 341 339 303 211 241 284 301 288 298 305 297 299 290 293 303 303 307 302 300 289 296 289 289 291 287 286 290 273 348 298 293 283 264 220 239 244 230 216 208 210 195 188 188 185 186 187 190 193 189 188 198 191 194 192 198 190 142 115 98 85
11 5 359 326 33 23 31 28 13 3 347 344 346 354 357 356 21 11 300 267 264 285 307 302 301 296 314 317 316 315 304 313 299 296 291 294 283 278 284 284 284 291 40 300 287 284 280 205 260 258 244 217 211 207 188 185 186 183 182 179 188 188 188 194 199 201 194 175 154 152 161 138 115 100
64 32 6 7 35 25 26 14 3 353 346 339 341 353 1 9 46 61 39 26 20 17 355 335 318 321 329 313 310 311 303 293 291 291 287 274 274 276 280 289 292 285 252 262 299 288 292 282 270 265 278 278 237 207 184 180 180 177 174 177 186 183 187 197 206 218 208 186 170 168 161 164 142 119
69 67 81 69 35 21 20 10 2 352 345 347 358 9 13 23 53 41 34 11 357 360 348 333 333 338 336 324 322 320 314 288 283 276 269 272 273 280 282 274 255 277 26 23 12 269 321 347 331 321 333 344 347 359 191 170 170 171 166 178 181 176 188 199 217 226 221 209 192 187 188 167 160 143
74 78 81 83 84 55 21 6 360 355 5 20 24 26 19 34 38 33 22 2 356 9 17 33 39 30 32 35 26 14 354 315 305 301 296 293 296 293 297 294 307 296 68 35 23 332 345 18 345 321 348 27 13 28 53 41 31 319 151 168 166 183 197 213 231 243 238 235 245 227 209 223 182 161
101 103 94 87 77 59 40 6 358 353 45 47 41 32 37 39 36 16 1 354 8 27 50 43 39 36 26 19 18 17 16 19 349 324 325 342 339 319 313 323 310 26 21 26 4 313 334 9 345 314 353 34 26 37 32 47 38 17 17 4 353 343 326 317 301 289 289 279 271 277 292 343 189 156
71 80 82 77 61 50 36 7 1 4 49 62 51 42 40 40 31 16 357 350 19 34 40 39 34 32 29 19 11 17 21 27 28 21 23 328 320 334 338 332 329 77 28 20 351 324 9 314 356 322 325 56 39 35 64 36 56 59 29 360 353 352 345 329 316 311 295 286 285 283 350 63 117 136
65 58 63 69 60 50 31 23 14 11 43 59 41 29 44 39 36 8 346 352 29 35 32 24 24 24 26 23 20 15 22 27 30 27 17 348 4 4 6 1 334 62 4 352 349 349 352 348 359 352 319 67 24 38 47 104 104 83 48 360 334 321 319 295 272 269 276 281 284 291 318 55 134 135
61 63 99 89 83 59 51 41 34 26 23 54 35 28 40 29 25 349 343 36 57 40 47 38 28 26 15 20 19 14 16 19 20 20 18 17 15 33 41 35 52 73 297 302 338 7 322 346 358 359 9 355 357 336 2 43 61 104 136 222 259 261 255 251 255 252 261 271 285 294 302 276 195 143
79 41 31 207 76 42 51 46 43 45 37 32 47 36 34 10 294 297 28 40 50 47 41 38 31 26 20 17 13 14 16 17 16 16 16 20 23 24 35 38 33 48 340 323 339 57 14 342 10 4 16 51 350 328 328 19 28 50 57 228 267 256 227 217 182 234 250 288 308 337 324 303 209 167
44 1 7 354 26 37 56 70 66 53 51 50 52 40 45 47 52 52 51 47 42 38 36 32 33 26 20 18 11 13 11 8 4 8 9 8 14 24 36 46 44 35 350 323 347 14 352 14 1 360 358 6 3 5 354 351 20 18 347 318 301 311 257 139 118 66 40 27 344 357 335 301 202 145
10 2 14 31 55 70 72 73 71 65 58 52 46 45 42 41 39 45 44 43 38 33 27 31 29 28 24 23 18 13 8 1 358 358 358 358 4 3 6 42 105 104 296 320 359 19 39 21 0 24 6 350 351 342 25 344 334 359 350 341 353 8 30 63 71 58 31 325 304 355 14 31 65 69
24 41 53 80 84 80 78 74 68 63 61 57 49 44 44 42 39 38 38 34 30 38 39 38 32 30 24 21 19 9 358 357 358 5 7 0 357 353 343 337 340 340 7 358 359 12 32 29 7 8 10 6 354 2 345 293 304 352 342 317 11 33 34 41 43 49 309 283 282 145 193 189 100 87
47 86 99 88 80 79 77 74 71 63 56 54 50 46 42 44 36 36 37 37 38 41 36 36 33 31 16 9 359 341 352 357 9 7 4 1 8 5 359 357 1 359 355 353 354 355 13 13 356 340 343 353 358 340 10 279 302 325 319 338 2 25 32 34 41 21 339 343 359 338 351 277 171 127
96 100 88 81 78 72 71 68 66 64 59 54 48 43 40 34 35 33 32 32 43 40 32 29 24 9 358 355 345 354 4 16 14 0 4 0 3 358 2 6 8 8 13 10 10 360 358 357 349 338 329 328 317 285 257 292 307 303 330 334 303 106 32 10 359 345 358 9 355 7 8 6 109 137
73 77 79 83 79 75 68 68 65 64 55 49 43 39 38 37 32 30 29 29 33 30 28 25 17 10 1 359 10 11 9 12 6 359 357 3 353 354 350 6 12 8 6 12 13 7 2 355 346 345 340 326 321 292 272 217 291 332 353 5 56 97 312 326 340 352 348 4 39 43 33 22 34 67
71 73 72 70 64 68 65 59 59 55 52 50 48 43 37 37 35 38 41 45 40 32 31 30 26 22 18 21 14 12 18 19 12 4 4 5 353 359 352 19 16 7 1 1 356 356 1 353 342 334 330 326 314 316 344 276 294 26 40 34 62 49 337 359 352 358 348 29 58 46 39 40 43 36
64 66 63 60 57 54 61 58 54 54 53 51 43 43 39 35 33 32 31 36 33 32 36 35 30 25 20 20 14 14 19 18 13 9 15 16 11 8 19 31 16 6 356 349 347 348 351 346 338 333 331 1 354 338 360 43 11 23 46 21 17 14 359 353 2 356 343 41 66 61 50 41 40 46
72 63 66 55 61 59 59 60 54 50 48 48 43 36 31 32 32 33 32 28 20 29 38 33 33 25 24 22 15 15 17 9 9 10 19 14 13 18 13 11 4 355 354 343 339 342 343 346 345 342 348 6 20 33 27 58 40 21 26 25 18 359 339 341 349 4 22 22 90 79 51 47 39 39
64 67 67 64 62 67 64 61 56 48 46 42 47 40 32 32 32 31 32 17 17 31 30 33 33 28 27 20 14 16 13 12 4 10 15 13 14 14 360 359 352 354 347 340 340 340 342 352 357 2 7 6 358 344 48 62 50 8 355 14 8 340 323 333 337 341 42 28 55 95 92 53 47 16
68 70 79 73 65 66 65 58 59 56 54 44 46 41 42 32 27 33 26 6 29 34 36 35 34 28 25 21 20 18 14 15 10 6 9 6 1 359 352 353 349 344 337 335 334 337 345 356 6 12 14 7 13 354 317 42 63 51 11 329 324 310 299 305 313 312 62 85 64 117 139 159 154 102
82 75 79 79 69 66 67 56 53 49 49 42 35 34 38 32 15 30 28 33 46 41 40 42 37 29 23 20 16 15 9 11 6 2 3 352 348 346 346 341 340 336 333 323 324 327 339 348 356 10 5 356 2 323 293 303 330 299 64 332 314 315 310 309 319 317 291 139 100 98 173 153 164 155
97 88 86 78 76 73 71 62 54 44 35 34 36 31 26 23 24 42 44 49 41 42 36 38 32 26 20 16 15 7 7 4 4 0 357 351 349 345 341 335 329 326 319 312 319 321 328 330 341 346 357 353 330 328 325 319 331 304 268 285 296 301 307 301 297 266 289 41 78 8 44 106 143 152
100 99 95 95 86 86 79 73 71 63 50 46 41 42 52 49 44 43 47 48 43 39 37 38 32 28 24 17 15 9 4 5 4 358 354 352 347 343 340 337 333 331 331 325 321 322 331 334 330 330 329 317 308 293 285 303 305 294 302 300 249 271 281 233 251 260 241 129 77 77 53 66 84 95
104 104 105 99 94 86 81 75 70 66 64 58 62 59 65 67 59 54 49 46 44 39 41 36 30 28 25 17 11 6 3 6 359 348 350 347 342 343 341 340 336 334 337 339 341 337 339 337 332 321 313 291 274 265 258 265 265 284 283 296 264 204 265 226 230 211 258 185 136 108 119 117 121 171
108 96 92 96 90 78 77 68 70 69 67 68 69 68 68 71 71 66 65 56 51 45 40 32 29 30 25 15 11 7 2 351 352 349 348 344 341 341 339 341 333 337 342 344 345 345 340 319 319 334 335 315 303 309 331 334 319 314 313 305 310 285 249 240 234 190 230 176 150 140 160 173 162 157
111 108 101 92 90 79 78 75 69 71 68 70 74 75 71 66 69 72 65 58 52 52 43 35 19 21 16 14 9 8 1 346 339 345 341 337 337 336 335 335 331 330 344 337 333 317 305 309 327 336 342 344 355 359 333 313 303 304 299 304 304 306 303 266 245 247 228 181 154 160 128 86 87 161
107 114 107 96 88 79 72 69 59 59 60 64 71 76 78 71 59 59 56 58 49 53 45 28 11 14 3 350 360 7 355 336 334 333 331 329 331 330 325 322 318 320 322 318 312 317 321 324 330 344 341 355 343 340 323 316 307 298 303 310 309 316 318 309 277 248 243 228 209 201 186 172 145 190
114 103 93 83 76 69 64 62 61 52 56 56 65 71 76 77 67 56 54 53 52 42 32 14 347 333 321 317 334 339 327 316 324 329 325 324 323 316 316 316 320 321 322 323 327 327 327 329 329 337 345 331 324 331 329 330 327 322 315 306 309 328 324 324 328 331 260 237 242 243 238 206 207 181
88 87 82 74 75 71 69 67 68 68 69 72 73 75 77 78 76 62 44 35 32 15 360 347 345 335 324 332 343 338 319 334 331 318 316 312 310 312 312 317 319 323 323 323 329 326 326 322 319 325 326 319 317 309 310 323 326 331 328 328 327 321 319 319 325 317 316 321 287 247 239 242 229 146